CFE1DC LESO-EGLC

Flight info

Callsign CFE1DC
Flight time N/A
Altitude 34000
Route BLV2Z BLV P87 BELEN DCT DIDIG UP87 TERPO UN867 EKRAS UM184 DIKRO UZ273 NEVIL NEVIL1C
Aircraft E190/M-SDE3GILORVW/S

Departure

Time 2026-04-12 11:58
Airport San Sebastián Airport (LESO)

Arrival

Time N/A
Airport London City Airport (EGLC)
Time Latitude Longitude Altitude Speed Heading
2026-04-12 11:01 43.35598 -1.79274 16 ft 0 kts 39°
2026-04-12 11:54 43.35601 -1.79270 15 ft 2 kts 39°
2026-04-12 11:54 43.35615 -1.79255 15 ft 4 kts 39°
2026-04-12 11:54 43.35639 -1.79228 16 ft 5 kts 39°
2026-04-12 11:55 43.35651 -1.79180 16 ft 5 kts 99°
2026-04-12 11:55 43.35633 -1.79148 17 ft 4 kts 131°
2026-04-12 11:55 43.35601 -1.79132 17 ft 6 kts 182°
2026-04-12 11:55 43.35546 -1.79177 18 ft 13 kts 218°
2026-04-12 11:56 43.35453 -1.79276 18 ft 21 kts 217°
2026-04-12 11:56 43.35320 -1.79417 18 ft 27 kts 219°
2026-04-12 11:56 43.35174 -1.79581 20 ft 27 kts 221°
2026-04-12 11:56 43.35085 -1.79724 21 ft 10 kts 247°
2026-04-12 11:57 43.35046 -1.79726 18 ft 2 kts 106°
2026-04-12 11:57 43.35054 -1.79715 18 ft 0 kts 44°
2026-04-12 11:57 43.35101 -1.79663 18 ft 34 kts 37°
2026-04-12 11:58 43.35452 -1.79277 18 ft 94 kts 39°
2026-04-12 11:58 43.36100 -1.78553 27 ft 143 kts 40°
2026-04-12 11:58 43.36929 -1.77662 385 ft 157 kts 37°
2026-04-12 11:58 43.37860 -1.76784 904 ft 165 kts 29°
2026-04-12 11:59 43.38981 -1.76142 1253 ft 185 kts 19°
2026-04-12 11:59 43.40252 -1.75545 1659 ft 201 kts 20°
2026-04-12 11:59 43.41574 -1.74835 2283 ft 204 kts 22°
2026-04-12 11:59 43.42925 -1.74334 2906 ft 203 kts 359°
2026-04-12 12:00 43.44252 -1.74957 3476 ft 208 kts 321°
2026-04-12 12:00 43.45020 -1.76639 4123 ft 214 kts 285°
2026-04-12 12:00 43.45079 -1.78689 4848 ft 215 kts 269°
2026-04-12 12:00 43.44961 -1.80745 5516 ft 216 kts 268°
2026-04-12 12:01 43.44826 -1.82810 6138 ft 218 kts 267°
2026-04-12 12:01 43.44681 -1.84891 6716 ft 220 kts 266°
2026-04-12 12:01 43.44531 -1.86992 7281 ft 221 kts 265°
2026-04-12 12:01 43.44382 -1.89108 7813 ft 223 kts 265°
2026-04-12 12:02 43.44218 -1.91236 8363 ft 224 kts 263°
2026-04-12 12:02 43.44012 -1.93352 9018 ft 223 kts 262°
2026-04-12 12:02 43.43800 -1.95468 9644 ft 224 kts 262°
2026-04-12 12:02 43.43607 -1.97612 10170 ft 232 kts 263°
2026-04-12 12:03 43.43685 -1.99925 10294 ft 256 kts 283°
2026-04-12 12:03 43.44488 -2.02218 10473 ft 279 kts 306°
2026-04-12 12:03 43.45783 -2.04320 10694 ft 298 kts 310°
2026-04-12 12:03 43.47219 -2.06475 11010 ft 310 kts 310°
2026-04-12 12:04 43.48679 -2.08687 11575 ft 314 kts 309°
2026-04-12 12:04 43.50138 -2.10939 12196 ft 316 kts 309°
2026-04-12 12:04 43.51604 -2.13209 12800 ft 319 kts 309°
2026-04-12 12:04 43.53093 -2.15501 13405 ft 323 kts 308°
2026-04-12 12:05 43.54602 -2.17821 14001 ft 327 kts 308°
2026-04-12 12:05 43.56130 -2.20161 14546 ft 329 kts 308°
2026-04-12 12:05 43.57670 -2.22514 15095 ft 332 kts 308°
2026-04-12 12:05 43.59207 -2.24856 15638 ft 335 kts 308°
2026-04-12 12:06 43.60781 -2.27247 16176 ft 338 kts 308°
2026-04-12 12:06 43.62373 -2.29656 16749 ft 340 kts 307°
2026-04-12 12:06 43.63974 -2.32079 17304 ft 343 kts 307°
2026-04-12 12:06 43.65593 -2.34520 17844 ft 347 kts 307°
2026-04-12 12:07 43.67232 -2.36985 18397 ft 350 kts 307°
2026-04-12 12:07 43.68889 -2.39471 18873 ft 353 kts 307°
2026-04-12 12:07 43.70566 -2.41980 19370 ft 357 kts 307°
2026-04-12 12:07 43.72259 -2.44507 19863 ft 360 kts 307°
2026-04-12 12:08 43.73969 -2.47055 20350 ft 364 kts 307°
2026-04-12 12:08 43.75702 -2.49628 20826 ft 367 kts 306°
2026-04-12 12:08 43.77450 -2.52218 21276 ft 370 kts 306°
2026-04-12 12:08 43.79217 -2.54830 21714 ft 373 kts 306°
2026-04-12 12:09 43.80999 -2.57460 22137 ft 377 kts 306°
2026-04-12 12:09 43.82803 -2.60117 22560 ft 380 kts 306°
2026-04-12 12:09 43.84622 -2.62790 22984 ft 383 kts 306°
2026-04-12 12:09 43.86456 -2.65482 23408 ft 386 kts 306°
2026-04-12 12:10 43.88310 -2.68198 23862 ft 388 kts 306°
2026-04-12 12:10 43.90285 -2.70804 24185 ft 401 kts 316°
2026-04-12 12:10 43.92844 -2.72531 24486 ft 422 kts 340°
2026-04-12 12:10 43.95808 -2.72874 24811 ft 435 kts
2026-04-12 12:11 43.98827 -2.72261 25154 ft 441 kts
2026-04-12 12:11 44.01857 -2.71480 25425 ft 446 kts
2026-04-12 12:11 44.03888 -2.70988 25626 ft 448 kts
2026-04-12 12:11 44.06970 -2.70282 25924 ft 451 kts
2026-04-12 12:12 44.10083 -2.69593 26221 ft 454 kts
2026-04-12 12:12 44.14234 -2.68689 26596 ft 458 kts
2026-04-12 12:12 44.17391 -2.68007 26873 ft 461 kts
2026-04-12 12:12 44.20572 -2.67320 27125 ft 465 kts
2026-04-12 12:13 44.22732 -2.66850 27313 ft 466 kts
2026-04-12 12:13 44.25947 -2.66156 27574 ft 469 kts
2026-04-12 12:13 44.29178 -2.65456 27835 ft 472 kts
2026-04-12 12:13 44.32430 -2.64749 28116 ft 474 kts
2026-04-12 12:14 44.35703 -2.64037 28379 ft 477 kts
2026-04-12 12:14 44.38990 -2.63319 28647 ft 480 kts
2026-04-12 12:14 44.42302 -2.62590 28880 ft 484 kts
2026-04-12 12:14 44.45645 -2.61853 29136 ft 487 kts
2026-04-12 12:15 44.48999 -2.61112 29386 ft 490 kts
2026-04-12 12:15 44.52374 -2.60365 29638 ft 492 kts
2026-04-12 12:15 44.55766 -2.59612 29885 ft 495 kts
2026-04-12 12:15 44.59177 -2.58851 30135 ft 498 kts
2026-04-12 12:16 44.62615 -2.58077 30295 ft 501 kts
2026-04-12 12:16 44.66068 -2.57304 30510 ft 503 kts
2026-04-12 12:16 44.69528 -2.56527 30734 ft 504 kts
2026-04-12 12:16 44.72995 -2.55749 30934 ft 506 kts
2026-04-12 12:17 44.76474 -2.54962 31130 ft 507 kts
2026-04-12 12:17 44.79960 -2.54174 31322 ft 508 kts
2026-04-12 12:17 44.83404 -2.53389 31503 ft 509 kts
2026-04-12 12:17 44.86907 -2.52592 31682 ft 510 kts
2026-04-12 12:18 44.90417 -2.51788 31853 ft 512 kts
2026-04-12 12:18 44.93935 -2.50982 32021 ft 513 kts
2026-04-12 12:18 44.97466 -2.50169 32205 ft 514 kts
2026-04-12 12:18 45.01005 -2.49352 32326 ft 517 kts
2026-04-12 12:19 45.04554 -2.48533 32562 ft 516 kts
2026-04-12 12:19 45.08094 -2.47719 32794 ft 515 kts
2026-04-12 12:19 45.11626 -2.46901 33023 ft 514 kts
2026-04-12 12:19 45.15158 -2.46084 33244 ft 514 kts
2026-04-12 12:20 45.18689 -2.45261 33426 ft 515 kts
2026-04-12 12:20 45.22231 -2.44431 33630 ft 516 kts
2026-04-12 12:20 45.25769 -2.43605 33851 ft 515 kts
2026-04-12 12:20 45.29300 -2.42778 34163 ft 511 kts
2026-04-12 12:21 45.32826 -2.41952 34186 ft 516 kts
2026-04-12 12:21 45.39979 -2.40251 34201 ft 526 kts
2026-04-12 12:22 45.47270 -2.38508 34091 ft 535 kts
2026-04-12 12:22 45.54635 -2.36747 34083 ft 538 kts
2026-04-12 12:23 45.62030 -2.34974 34087 ft 539 kts
2026-04-12 12:23 45.69424 -2.33201 34069 ft 539 kts
2026-04-12 12:24 45.76829 -2.31417 34072 ft 540 kts
2026-04-12 12:24 45.84237 -2.29627 34084 ft 540 kts
2026-04-12 12:25 45.91659 -2.27831 34082 ft 541 kts
2026-04-12 12:25 45.99080 -2.26029 34077 ft 541 kts
2026-04-12 12:26 46.06496 -2.24091 34084 ft 543 kts 11°
2026-04-12 12:26 46.13819 -2.21327 34079 ft 544 kts 13°
2026-04-12 12:27 46.21087 -2.18534 34072 ft 545 kts 13°
2026-04-12 12:27 46.28423 -2.15733 34072 ft 545 kts 13°
2026-04-12 12:28 46.35756 -2.12934 34086 ft 545 kts 13°
2026-04-12 12:28 46.43148 -2.10107 34063 ft 546 kts 13°
2026-04-12 12:29 46.50444 -2.07310 34063 ft 546 kts 13°
2026-04-12 12:29 46.57794 -2.04484 34036 ft 547 kts 13°
2026-04-12 12:30 46.65197 -2.01631 34064 ft 546 kts 13°
2026-04-12 12:30 46.72489 -1.98812 34062 ft 547 kts 13°
2026-04-12 12:31 46.79846 -1.95960 34052 ft 547 kts 13°
2026-04-12 12:31 46.87200 -1.93100 34056 ft 547 kts 13°
2026-04-12 12:32 46.94563 -1.90229 34048 ft 547 kts 13°
2026-04-12 12:32 47.00728 -1.87819 34055 ft 548 kts 13°
2026-04-12 12:33 47.09253 -1.84477 34047 ft 548 kts 13°
2026-04-12 12:33 47.16623 -1.81579 34073 ft 548 kts 13°
2026-04-12 12:34 47.23942 -1.78692 34043 ft 549 kts 13°
2026-04-12 12:34 47.31320 -1.75774 34047 ft 549 kts 13°
2026-04-12 12:35 47.38701 -1.72846 34055 ft 550 kts 13°
2026-04-12 12:35 47.46092 -1.69905 34051 ft 550 kts 13°
2026-04-12 12:36 47.53437 -1.66976 34017 ft 550 kts 13°
2026-04-12 12:36 47.60788 -1.64034 34031 ft 549 kts 13°
2026-04-12 12:37 47.68170 -1.61071 34044 ft 550 kts 13°
2026-04-12 12:37 47.75480 -1.58128 34041 ft 550 kts 13°
2026-04-12 12:38 47.82821 -1.55165 34023 ft 550 kts 13°
2026-04-12 12:38 47.90255 -1.52158 34033 ft 551 kts 13°
2026-04-12 12:39 47.97643 -1.49157 34029 ft 551 kts 13°
2026-04-12 12:39 48.05040 -1.46143 34037 ft 550 kts 12°
2026-04-12 12:40 48.12433 -1.43124 34035 ft 551 kts 13°
2026-04-12 12:40 48.19829 -1.40093 34031 ft 551 kts 13°
2026-04-12 12:41 48.27210 -1.37059 34038 ft 549 kts 12°
2026-04-12 12:41 48.34589 -1.34020 34032 ft 550 kts 12°
2026-04-12 12:42 48.41967 -1.30970 34030 ft 550 kts 12°
2026-04-12 12:42 48.53015 -1.26384 34049 ft 548 kts 12°
2026-04-12 12:43 48.60386 -1.23316 34018 ft 551 kts 12°
2026-04-12 12:43 48.67787 -1.20224 34009 ft 552 kts 12°
2026-04-12 12:44 48.75188 -1.17123 34029 ft 552 kts 12°
2026-04-12 12:44 48.82596 -1.14009 34019 ft 552 kts 12°
2026-04-12 12:45 48.89998 -1.10887 34023 ft 552 kts 12°
2026-04-12 12:45 48.97405 -1.07755 34021 ft 552 kts 12°
2026-04-12 12:46 49.04763 -1.04634 34013 ft 552 kts 12°
2026-04-12 12:46 49.12166 -1.01483 34020 ft 551 kts 12°
2026-04-12 12:47 49.19564 -0.98327 34016 ft 552 kts 12°
2026-04-12 12:47 49.26957 -0.95162 34008 ft 552 kts 12°